This is the latest recevied weather packets stored in our database for station/object N7ZAP. If no packets are shown the sender has not sent any weather packets the latest 10 day(s).
| Time | Temp. | Humidity | Pressure | Rain* | Wind** | Luminosity | Snow |
|---|---|---|---|---|---|---|---|
| 1777226817 | 25° C | 15% | 1007.7 hPa | 0 mm | - | - | - |
| 1777226516 | 25° C | 14% | 1007.4 hPa | 0 mm | - | - | - |
| 1777226212 | 25° C | 16% | 1008 hPa | 0 mm | - | - | - |
| 1777225908 | 25° C | 16% | 1007.7 hPa | 0 mm | - | - | - |
| 1777225604 | 24.44° C | 18% | 1007.9 hPa | 0 mm | - | - | - |
| 1777225301 | 24.44° C | 18% | 1007.9 hPa | 0 mm | - | - | - |
| 1777224998 | 23.33° C | 19% | 1008 hPa | 0 mm | - | - | - |
| 1777224696 | 23.33° C | 19% | 1008 hPa | 0 mm | - | - | - |
| 1777224396 | 23.33° C | 18% | 1008.1 hPa | 0 mm | - | - | - |
| 1777224092 | 23.89° C | 18% | 1008.2 hPa | 0 mm | - | - | - |
| 1777223789 | 23.33° C | 19% | 1008.7 hPa | 0 mm | - | - | - |
| 1777223485 | 22.78° C | 19% | 1008.8 hPa | 0 mm | - | - | - |
| 1777223183 | 23.33° C | 19% | 1008.7 hPa | 0 mm | - | - | - |
| 1777222880 | 22.78° C | 20% | 1008.9 hPa | 0 mm | - | - | - |
| 1777222577 | 23.33° C | 19% | 1009 hPa | 0 mm | - | - | - |
| 1777222275 | 23.33° C | 20% | 1008.9 hPa | 0 mm | - | - | - |
| 1777221973 | 22.78° C | 21% | 1009 hPa | 0 mm | - | - | - |
| 1777221668 | 21.67° C | 22% | 1008.8 hPa | 0 mm | - | - | - |
| 1777221365 | 21.11° C | 23% | 1009 hPa | 0 mm | - | - | - |
| 1777221063 | 21.67° C | 23% | 1009 hPa | 0 mm | - | - | - |
| 1777220762 | 21.67° C | 23% | 1009.1 hPa | 0 mm | - | - | - |
| 1777220458 | 21.11° C | 24% | 1008.9 hPa | 0 mm | - | - | - |
| 1777220158 | 21.11° C | 24% | 1009.4 hPa | 0 mm | - | - | - |
| 1777219855 | 21.67° C | 23% | 1009.4 hPa | 0 mm | - | - | - |
| 1777219553 | 21.11° C | 24% | 1009.3 hPa | 0 mm | - | - | - |
* Rain latest hour (hover to see other rain measurements)
** Current wind speed in m/s (hover to see current wind gust speed)